Weather History for KGUS - March, 2014

Change the Weather History Date:

Tuesday, March 25, 2014

  Actual Average Record
Temperature  
Mean Temperature 26 °F -  
Max Temperature 31 °F 50 °F 78 °F (2007)
Min Temperature 21 °F 33 °F 19 °F (2001)
Degree Days  
Heating Degree Days 38    
Moisture  
Dew Point 23 °F    
Average Humidity 84    
Maximum Humidity 100    
Minimum Humidity 52    
Precipitation  
Precipitation 0.00 in - - ()
Sea Level Pressure  
Sea Level Pressure 30.05 in    
Wind  
Wind Speed 11 mph (WNW)    
Max Wind Speed 28 mph    
Max Gust Speed 34 mph    
Visibility 7 miles    
Events Snow    
Averages and records for this station are not official NWS values.
T = Trace of Precipitation, MM = Missing Value Source: NWS Daily Summary

Daily Weather History Graph

Daily Weather History Graph

Search for Another Location

Airport or City:

Trip Planner

Search our weather history database for the weather conditions in past years. The results will help you decide how hot, cold, wet, or windy it might be!

Date:

Astronomy

Mar. 25, 2014 Rise Set
Actual Time 7:39 AM EDT 8:02 PM EDT
Civil Twilight 7:12 AM EDT 8:29 PM EDT
Nautical Twilight 6:40 AM EDT 9:01 PM EDT
Astronomical Twilight 6:07 AM EDT 9:34 PM EDT
Moon 4:02 AM EDT (3/25) 2:30 PM EDT (3/25)
Length of Visible Light 13h 17m
Length of Day
12h 22m
Waning Crescent, 32% of the Moon is Illuminated
Mar 25
Waning Crescent
Mar 30
New
Apr 7
First Quarter
Apr 15
Full
Apr 22
Last Quarter

Hourly Weather History & Observations

Time (EDT) Temp. Windchill Dew Point Humidity Pressure Visibility Wind Dir Wind Speed Gust Speed Precip Events Conditions
12:58 AM 26.8 °F 21.4 °F 20.7 °F 78% 30.13 in 10.0 mi WNW 4.6 mph - N/A   Clear
1:58 AM 25.9 °F 20.3 °F 22.6 °F 88% 30.11 in 10.0 mi WSW 4.6 mph - N/A   Partly Cloudy
2:58 AM 27.0 °F 21.6 °F 23.4 °F 86% 30.08 in 10.0 mi WSW 4.6 mph - N/A   Scattered Clouds
3:58 AM 25.0 °F 18.1 °F 21.0 °F 85% 30.06 in 10.0 mi WSW 5.8 mph - N/A   Clear
4:58 AM 25.7 °F 19.0 °F 21.2 °F 83% 30.03 in 10.0 mi WSW 5.8 mph - N/A   Mostly Cloudy
5:58 AM 26.2 °F 19.6 °F 23.7 °F 90% 30.01 in 10.0 mi SSW 5.8 mph - N/A   Scattered Clouds
6:58 AM 26.1 °F 16.8 °F 21.6 °F 83% 30.00 in 10.0 mi WSW 9.2 mph - N/A   Partly Cloudy
7:53 AM 28.4 °F 18.0 °F 26.6 °F 93% 29.96 in 10.0 mi West 12.7 mph - N/A Snow Light Snow
7:58 AM 28.2 °F 17.7 °F 26.1 °F 92% 30.00 in 5.0 mi West 12.7 mph - 0.00 in Snow Light Snow
8:03 AM 28.4 °F 17.5 °F 26.6 °F 93% 29.96 in 5.0 mi West 13.8 mph - N/A Snow Light Snow
8:08 AM 28.4 °F 17.0 °F 28.4 °F 100% 29.96 in 5.0 mi West 15.0 mph - N/A Snow Light Snow
8:13 AM 28.4 °F 18.0 °F 28.4 °F 100% 29.96 in 5.0 mi West 12.7 mph - N/A Snow Light Snow
8:28 AM 28.4 °F 18.0 °F 28.4 °F 100% 29.96 in 4.0 mi West 12.7 mph - N/A Snow Light Snow
8:38 AM 28.4 °F 18.0 °F 28.4 °F 100% 29.96 in 5.0 mi West 12.7 mph - N/A Snow Light Snow
8:48 AM 28.4 °F 18.0 °F 28.4 °F 100% 29.96 in 3.0 mi West 12.7 mph - N/A Snow Light Snow
8:58 AM 28.4 °F 17.5 °F 28.4 °F 100% 30.01 in 5.0 mi NW 13.8 mph - 0.00 in Snow Light Snow
9:08 AM 28.4 °F 18.5 °F 26.6 °F 93% 29.97 in 10.0 mi WNW 11.5 mph - N/A Snow Light Snow
9:40 AM 28.4 °F 17.0 °F 26.6 °F 93% 29.97 in 5.0 mi NW 15.0 mph - N/A Snow Light Snow
9:51 AM 28.4 °F 18.0 °F 28.4 °F 100% 29.97 in 3.0 mi NW 12.7 mph - N/A Snow Light Snow
9:58 AM 28.4 °F 16.2 °F 28.2 °F 99% 30.01 in 4.0 mi WNW 17.3 mph - 0.00 in Snow Light Snow
10:02 AM 28.4 °F 17.5 °F 26.6 °F 93% 29.98 in 1.2 mi NW 13.8 mph 24.2 mph N/A Snow Light Snow
10:05 AM 26.6 °F 16.2 °F 26.6 °F 100% 29.98 in 1.8 mi NW 11.5 mph 24.2 mph N/A Snow Light Snow
10:08 AM 26.6 °F 16.8 °F 26.6 °F 100% 29.98 in 1.2 mi NW 10.4 mph 24.2 mph N/A Snow Light Snow
10:10 AM 26.6 °F 15.7 °F 26.6 °F 100% 29.98 in 2.0 mi NW 12.7 mph - N/A Snow Light Snow
10:14 AM 26.6 °F 15.7 °F 26.6 °F 100% 29.98 in 1.2 mi NW 12.7 mph - N/A Snow Light Snow
10:31 AM 26.6 °F 15.7 °F 26.6 °F 100% 29.98 in 1.2 mi NW 12.7 mph 19.6 mph N/A Snow Light Snow
10:58 AM 27.1 °F 14.9 °F 27.0 °F 99% 30.05 in 1.5 mi NNW 16.1 mph - 0.00 in Snow Light Snow
11:13 AM 28.4 °F 17.5 °F 26.6 °F 93% 30.01 in 9.0 mi NNW 13.8 mph 24.2 mph N/A Snow Light Snow
11:33 AM 28.4 °F 15.8 °F 23.0 °F 80% 30.02 in 10.0 mi NNW 18.4 mph 24.2 mph N/A   Overcast
11:58 AM 30.2 °F 18.1 °F 23.0 °F 75% 30.07 in 9.0 mi NW 18.4 mph 23.0 mph 0.00 in Snow Light Snow
12:58 PM 27.9 °F 17.3 °F 24.6 °F 88% 30.08 in 10.0 mi NW 12.7 mph - 0.00 in Snow Light Snow
1:08 PM 28.4 °F 17.0 °F 21.2 °F 74% 30.04 in 10.0 mi NW 15.0 mph 25.3 mph N/A   Mostly Cloudy
1:19 PM 32.0 °F 20.5 °F 21.2 °F 64% 30.04 in 10.0 mi NW 18.4 mph - N/A   Scattered Clouds
1:28 PM 30.2 °F 17.8 °F 15.8 °F 55% 30.04 in 10.0 mi NW 19.6 mph 27.6 mph N/A   Mostly Cloudy
1:38 PM 30.2 °F 18.5 °F 17.6 °F 60% 30.05 in 10.0 mi NW 17.3 mph 26.5 mph N/A Snow Light Snow
1:47 PM 32.0 °F 20.5 °F 17.6 °F 55% 30.04 in 10.0 mi WNW 18.4 mph 23.0 mph N/A   Mostly Cloudy
1:58 PM 31.8 °F 19.3 °F 16.2 °F 52% 30.09 in 7.0 mi NW 21.9 mph 31.1 mph 0.00 in Snow Light Snow
2:36 PM 30.2 °F 17.8 °F 19.4 °F 64% 30.05 in 7.0 mi NNW 19.6 mph 28.8 mph N/A Snow Light Snow
2:58 PM 29.3 °F 17.0 °F 18.3 °F 64% 30.08 in 10.0 mi NW 18.4 mph 25.3 mph 0.00 in   Mostly Cloudy
3:33 PM 32.0 °F 18.1 °F 19.4 °F 60% 30.04 in 0.8 mi NW 27.6 mph 34.5 mph N/A Snow Light Snow
3:36 PM 28.4 °F 15.4 °F 23.0 °F 80% 30.05 in 1.5 mi NW 19.6 mph 34.5 mph N/A Snow Light Snow
3:44 PM 28.4 °F 15.8 °F 28.4 °F 100% 30.05 in 6.0 mi NW 18.4 mph - N/A Snow Light Snow
3:58 PM 29.1 °F 18.4 °F 26.8 °F 91% 30.09 in 6.0 mi NNW 13.8 mph 21.9 mph 0.00 in Snow Light Snow
4:30 PM 30.2 °F 18.1 °F 21.2 °F 69% 30.06 in 1.0 mi WNW 18.4 mph 23.0 mph N/A Snow Light Snow
4:52 PM 28.4 °F 15.8 °F 23.0 °F 80% 30.07 in 10.0 mi NW 18.4 mph - N/A   Mostly Cloudy
4:58 PM 28.4 °F 15.4 °F 21.2 °F 74% 30.12 in 10.0 mi NW 19.6 mph 24.2 mph 0.00 in   Mostly Cloudy
5:09 PM 28.4 °F 14.7 °F 23.0 °F 80% 30.08 in 4.0 mi NW 21.9 mph 26.5 mph N/A Snow Light Snow
5:58 PM 26.6 °F 15.7 °F 23.5 °F 88% 30.13 in 10.0 mi NW 12.7 mph - 0.00 in Snow Light Snow
6:58 PM 26.4 °F 15.5 °F 18.1 °F 71% 30.14 in 10.0 mi NW 12.7 mph - 0.00 in   Mostly Cloudy
7:58 PM 24.4 °F 13.5 °F 19.4 °F 81% 30.17 in 10.0 mi NW 11.5 mph - N/A   Scattered Clouds
8:58 PM 23.2 °F 12.6 °F 16.0 °F 74% 30.19 in 10.0 mi NW 10.4 mph - N/A   Partly Cloudy
9:58 PM 22.3 °F 13.0 °F 15.3 °F 74% 30.22 in 10.0 mi NW 8.1 mph - N/A   Clear
10:58 PM 21.6 °F 13.0 °F 14.7 °F 75% 30.25 in 10.0 mi NW 6.9 mph - N/A   Scattered Clouds
11:58 PM 21.2 °F 14.9 °F 13.1 °F 71% 30.25 in 10.0 mi NNW 4.6 mph - N/A   Scattered Clouds